| time (UTC) | temp F | wind direction | speed MPH | gust MPH | rain 1hr in | rain 24hr in | rain mn in | humidity % | barometer mb |
| 20260509224556 | 88 | 187 | 0.0 | 5.0 | 0.00 | 0.00 | 0.00 | 56 | 1007.8 |
| 20260509224053 | 89 | 0 | 2.0 | 5.0 | 0.00 | 0.00 | 0.00 | 54 | 1007.8 |
| 20260509223553 | 89 | 171 | 1.0 | 4.0 | 0.00 | 0.00 | 0.00 | 53 | 1007.9 |
| 20260509223100 | 90 | 194 | 1.0 | 5.0 | 0.00 | 0.00 | 0.00 | 52 | 1007.8 |
| 20260509222552 | 90 | 194 | 1.0 | 6.0 | 0.00 | 0.00 | 0.00 | 54 | 1007.7 |
| 20260509222052 | 90 | 177 | 2.0 | 6.0 | 0.00 | 0.00 | 0.00 | 51 | 1007.7 |
| 20260509221607 | 90 | 247 | 1.0 | 6.0 | 0.00 | 0.00 | 0.00 | 53 | 1007.7 |
| 20260509221053 | 90 | 192 | 2.0 | 7.0 | 0.00 | 0.00 | 0.00 | 53 | 1007.7 |
| 20260509220551 | 90 | 162 | 3.0 | 9.0 | 0.00 | 0.00 | 0.00 | 54 | 1007.8 |
| 20260509220054 | 90 | 159 | 2.0 | 9.0 | 0.00 | 0.00 | 0.00 | 55 | 1007.8 |
| 20260509215553 | 90 | 118 | 2.0 | 12.0 | 0.00 | 0.00 | 0.00 | 54 | 1007.8 |
| 20260509215058 | 90 | 211 | 3.0 | 12.0 | 0.00 | 0.00 | 0.00 | 54 | 1007.8 |
| 20260509214601 | 90 | 182 | 1.0 | 5.0 | 0.00 | 0.00 | 0.00 | 53 | 1007.9 |
| 20260509214051 | 90 | 182 | 1.0 | 5.0 | 0.00 | 0.00 | 0.00 | 53 | 1007.9 |
| 20260509213551 | 89 | 163 | 0.0 | 6.0 | 0.00 | 0.00 | 0.00 | 54 | 1007.9 |
| 20260509213057 | 90 | 159 | 1.0 | 6.0 | 0.00 | 0.00 | 0.00 | 53 | 1008.0 |
| 20260509212552 | 90 | 152 | 2.0 | 6.0 | 0.00 | 0.00 | 0.00 | 54 | 1007.9 |
| 20260509212055 | 90 | 163 | 1.0 | 6.0 | 0.00 | 0.00 | 0.00 | 55 | 1007.9 |
| 20260509211554 | 90 | 160 | 0.0 | 6.0 | 0.00 | 0.00 | 0.00 | 54 | 1007.9 |
| 20260509211053 | 88 | 236 | 1.0 | 6.0 | 0.00 | 0.00 | 0.00 | 55 | 1008.1 |
| 20260509210553 | 89 | 249 | 2.0 | 5.0 | 0.00 | 0.00 | 0.00 | 54 | 1008.1 |
| 20260509210058 | 91 | 143 | 1.0 | 6.0 | 0.00 | 0.00 | 0.00 | 53 | 1008.3 |
| 20260509205552 | 90 | 154 | 2.0 | 11.0 | 0.00 | 0.00 | 0.00 | 52 | 1008.4 |
| 20260509205051 | 91 | 161 | 2.0 | 11.0 | 0.00 | 0.00 | 0.00 | 51 | 1008.4 |
| 20260509204555 | 91 | 183 | 2.0 | 9.0 | 0.00 | 0.00 | 0.00 | 54 | 1008.4 |
| 20260509204052 | 91 | 178 | 1.0 | 10.0 | 0.00 | 0.00 | 0.00 | 54 | 1008.5 |
| 20260509203557 | 91 | 193 | 2.0 | 10.0 | 0.00 | 0.00 | 0.00 | 55 | 1008.6 |
| 20260509203100 | 91 | 216 | 3.0 | 10.0 | 0.00 | 0.00 | 0.00 | 53 | 1008.6 |
| 20260509202553 | 91 | 233 | 3.0 | 9.0 | 0.00 | 0.00 | 0.00 | 52 | 1008.7 |
| 20260509202053 | 90 | 190 | 3.0 | 13.0 | 0.00 | 0.00 | 0.00 | 54 | 1008.7 |
| 20260509201556 | 90 | 209 | 2.0 | 13.0 | 0.00 | 0.00 | 0.00 | 56 | 1008.8 |
| 20260509201057 | 89 | 219 | 4.0 | 10.0 | 0.00 | 0.00 | 0.00 | 55 | 1008.9 |
| 20260509200553 | 89 | 109 | 2.0 | 9.0 | 0.00 | 0.00 | 0.00 | 56 | 1008.9 |
| 20260509200109 | 90 | 244 | 2.0 | 9.0 | 0.00 | 0.00 | 0.00 | 56 | 1009.1 |
| 20260509195556 | 89 | 206 | 3.0 | 9.0 | 0.00 | 0.00 | 0.00 | 57 | 1009.2 |
| 20260509195052 | 89 | 171 | 2.0 | 9.0 | 0.00 | 0.00 | 0.00 | 56 | 1009.4 |
| 20260509194557 | 90 | 169 | 2.0 | 8.0 | 0.00 | 0.00 | 0.00 | 57 | 1009.5 |
| 20260509194053 | 88 | 174 | 2.0 | 9.0 | 0.00 | 0.00 | 0.00 | 58 | 1009.6 |
| 20260509193551 | 88 | 206 | 4.0 | 9.0 | 0.00 | 0.00 | 0.00 | 57 | 1009.7 |
| 20260509193053 | 89 | 265 | 3.0 | 8.0 | 0.00 | 0.00 | 0.00 | 57 | 1009.7 |
| 20260509192552 | 89 | 238 | 1.0 | 9.0 | 0.00 | 0.00 | 0.00 | 58 | 1009.8 |
| 20260509192055 | 89 | 212 | 3.0 | 9.0 | 0.00 | 0.00 | 0.00 | 57 | 1009.9 |
| 20260509191553 | 90 | 198 | 2.0 | 7.0 | 0.00 | 0.00 | 0.00 | 57 | 1010.0 |
| 20260509191053 | 89 | 150 | 2.0 | 7.0 | 0.00 | 0.00 | 0.00 | 59 | 1010.1 |
| 20260509190553 | 89 | 218 | 3.0 | 8.0 | 0.00 | 0.00 | 0.00 | 57 | 1010.0 |
| 20260509190057 | 89 | 210 | 1.0 | 9.0 | 0.00 | 0.00 | 0.00 | 56 | 1010.1 |
| 20260509185553 | 89 | 205 | 4.0 | 9.0 | 0.00 | 0.00 | 0.00 | 59 | 1010.0 |
| 20260509185052 | 90 | 207 | 1.0 | 7.0 | 0.00 | 0.00 | 0.00 | 58 | 1010.1 |
| 20260509184558 | 89 | 0 | 2.0 | 7.0 | 0.00 | 0.00 | 0.00 | 60 | 1010.1 |
| 20260509184053 | 89 | 198 | 1.0 | 10.0 | 0.00 | 0.00 | 0.00 | 58 | 1010.1 |
| 20260509183553 | 89 | 214 | 2.0 | 11.0 | 0.00 | 0.00 | 0.00 | 60 | 1010.2 |
| 20260509183103 | 89 | 198 | 3.0 | 11.0 | 0.00 | 0.00 | 0.00 | 59 | 1010.5 |
| 20260509182552 | 88 | 286 | 2.0 | 9.0 | 0.00 | 0.00 | 0.00 | 62 | 1010.4 |
| 20260509182052 | 89 | 227 | 3.0 | 9.0 | 0.00 | 0.00 | 0.00 | 59 | 1010.6 |
| 20260509181552 | 88 | 0 | 2.0 | 9.0 | 0.00 | 0.00 | 0.00 | 62 | 1010.7 |
| 20260509181053 | 87 | 182 | 3.0 | 9.0 | 0.00 | 0.00 | 0.00 | 61 | 1010.7 |
| 20260509180555 | 88 | 190 | 2.0 | 12.0 | 0.00 | 0.00 | 0.00 | 62 | 1010.8 |
| 20260509180056 | 87 | 216 | 5.0 | 12.0 | 0.00 | 0.00 | 0.00 | 63 | 1010.8 |
| 20260509175553 | 87 | 182 | 3.0 | 6.0 | 0.00 | 0.00 | 0.00 | 64 | 1010.8 |
| 20260509175055 | 86 | 202 | 1.0 | 7.0 | 0.00 | 0.00 | 0.00 | 66 | 1010.9 |
| 20260509174555 | 86 | 187 | 1.0 | 9.0 | 0.00 | 0.00 | 0.00 | 64 | 1010.9 |
| 20260509174053 | 87 | 188 | 3.0 | 9.0 | 0.00 | 0.00 | 0.00 | 65 | 1011.0 |
| 20260509173553 | 87 | 200 | 3.0 | 8.0 | 0.00 | 0.00 | 0.00 | 63 | 1011.0 |
| 20260509173058 | 86 | 171 | 2.0 | 7.0 | 0.00 | 0.00 | 0.00 | 67 | 1010.9 |
| 20260509172553 | 85 | 150 | 2.0 | 8.0 | 0.00 | 0.00 | 0.00 | 68 | 1011.0 |
| 20260509172053 | 85 | 211 | 3.0 | 8.0 | 0.00 | 0.00 | 0.00 | 69 | 1011.0 |
| 20260509171553 | 84 | 173 | 1.0 | 8.0 | 0.00 | 0.00 | 0.00 | 71 | 1011.1 |
| 20260509171052 | 84 | 229 | 3.0 | 9.0 | 0.00 | 0.00 | 0.00 | 70 | 1011.1 |
| 20260509170554 | 84 | 217 | 3.0 | 9.0 | 0.00 | 0.00 | 0.00 | 69 | 1011.0 |
| 20260509170057 | 84 | 182 | 1.0 | 9.0 | 0.00 | 0.00 | 0.00 | 71 | 1011.1 |
| 20260509165551 | 84 | 187 | 2.0 | 7.0 | 0.00 | 0.00 | 0.00 | 71 | 1011.1 |
| 20260509165051 | 84 | 189 | 2.0 | 5.0 | 0.00 | 0.00 | 0.00 | 71 | 1011.1 |
| 20260509164554 | 83 | 213 | 1.0 | 6.0 | 0.00 | 0.00 | 0.00 | 72 | 1011.0 |
| 20260509164053 | 82 | 203 | 0.0 | 6.0 | 0.00 | 0.00 | 0.00 | 75 | 1011.1 |
| 20260509163553 | 82 | 198 | 1.0 | 5.0 | 0.00 | 0.00 | 0.00 | 75 | 1011.1 |
| 20260509163101 | 82 | 48 | 1.0 | 4.0 | 0.00 | 0.00 | 0.00 | 77 | 1011.2 |
| 20260509162553 | 80 | 230 | 0.0 | 4.0 | 0.00 | 0.00 | 0.00 | 76 | 1011.3 |
| 20260509162053 | 81 | 306 | 1.0 | 4.0 | 0.00 | 0.00 | 0.00 | 75 | 1011.3 |
| 20260509161553 | 80 | 207 | 0.0 | 4.0 | 0.00 | 0.00 | 0.00 | 79 | 1011.2 |
| 20260509161052 | 80 | 210 | 2.0 | 4.0 | 0.00 | 0.00 | 0.00 | 79 | 1011.1 |
| 20260509160553 | 79 | 223 | 1.0 | 4.0 | 0.00 | 0.00 | 0.00 | 81 | 1011.1 |
| 20260509160052 | 78 | 0 | 1.0 | 9.0 | 0.00 | 0.00 | 0.00 | 83 | 1011.0 |
| 20260509155552 | 78 | 285 | 1.0 | 9.0 | 0.00 | 0.00 | 0.00 | 85 | 1011.1 |
| 20260509155052 | 77 | 206 | 3.0 | 12.0 | 0.00 | 0.00 | 0.00 | 88 | 1011.0 |
| 20260509154556 | 76 | 215 | 3.0 | 12.0 | 0.00 | 0.00 | 0.00 | 90 | 1011.1 |
| 20260509154053 | 76 | 200 | 4.0 | 12.0 | 0.00 | 0.00 | 0.00 | 93 | 1011.1 |
| 20260509153552 | 74 | 205 | 3.0 | 8.0 | 0.00 | 0.00 | 0.00 | 94 | 1011.5 |
| 20260509153056 | 74 | 196 | 1.0 | 6.0 | 0.00 | 0.00 | 0.00 | 95 | 1011.6 |
| 20260509152552 | 74 | 196 | 1.0 | 6.0 | 0.00 | 0.00 | 0.00 | 95 | 1011.5 |
| 20260509152053 | 73 | 0 | 1.0 | 4.0 | 0.00 | 0.00 | 0.00 | 96 | 1011.6 |
| 20260509151559 | 72 | 0 | 1.0 | 5.0 | 0.00 | 0.00 | 0.00 | 96 | 1011.8 |
| 20260509151052 | 72 | 165 | 0.0 | 5.0 | 0.00 | 0.00 | 0.00 | 96 | 1011.9 |
| 20260509150552 | 72 | 0 | 1.0 | 5.0 | 0.00 | 0.00 | 0.00 | 96 | 1011.8 |
| 20260509150052 | 73 | 0 | 0.0 | 2.0 | 0.00 | 0.00 | 0.00 | 96 | 1011.7 |
| 20260509145553 | 72 | 93 | 0.0 | 2.0 | 0.00 | 0.00 | 0.00 | 96 | 1011.8 |
| 20260509145054 | 72 | 0 | 0.0 | 2.0 | 0.00 | 0.00 | 0.00 | 96 | 1011.9 |
| 20260509144557 | 72 | 0 | 0.0 | 1.0 | 0.00 | 0.00 | 0.00 | 96 | 1011.8 |
| 20260509144052 | 72 | 0 | 0.0 | 1.0 | 0.00 | 0.00 | 0.00 | 96 | 1011.9 |
| 20260509143550 | 72 | 0 | 0.0 | 1.0 | 0.00 | 0.00 | 0.00 | 96 | 1011.8 |
| 20260509143059 | 72 | 93 | 0.0 | 3.0 | 0.00 | 0.00 | 0.00 | 96 | 1011.8 |
| 20260509142552 | 72 | 0 | 0.0 | 3.0 | 0.00 | 0.00 | 0.00 | 96 | 1011.9 |
| 20260509142052 | 71 | 93 | 0.0 | 3.0 | 0.00 | 0.00 | 0.00 | 96 | 1011.9 |
| 20260509141600 | 71 | 0 | 0.0 | 2.0 | 0.00 | 0.00 | 0.00 | 96 | 1011.7 |
| 20260509141054 | 71 | 0 | 0.0 | 2.0 | 0.00 | 0.00 | 0.00 | 96 | 1011.5 |
| 20260509140552 | 71 | 71 | 0.0 | 2.0 | 0.00 | 0.00 | 0.00 | 96 | 1011.3 |
| 20260509135552 | 71 | 71 | 0.0 | 3.0 | 0.00 | 0.00 | 0.00 | 96 | 1010.8 |
| 20260509135052 | 71 | 0 | 0.0 | 3.0 | 0.00 | 0.00 | 0.00 | 96 | 1010.6 |
| 20260509134551 | 71 | 0 | 1.0 | 3.0 | 0.00 | 0.00 | 0.00 | 96 | 1010.6 |
| 20260509134052 | 71 | 0 | 0.0 | 0.0 | 0.00 | 0.00 | 0.00 | 96 | 1010.6 |
| 20260509133552 | 71 | 0 | 0.0 | 0.0 | 0.00 | 0.00 | 0.00 | 96 | 1010.7 |
| 20260509133053 | 71 | 0 | 0.0 | 0.0 | 0.00 | 0.00 | 0.00 | 96 | 1010.9 |
| 20260509132554 | 71 | 0 | 0.0 | 0.0 | 0.00 | 0.00 | 0.00 | 96 | 1010.8 |
| 20260509132051 | 71 | 0 | 0.0 | 0.0 | 0.00 | 0.00 | 0.00 | 96 | 1010.9 |
| 20260509131554 | 71 | 0 | 0.0 | 0.0 | 0.00 | 0.00 | 0.00 | 96 | 1011.0 |
| 20260509131052 | 71 | 0 | 0.0 | 0.0 | 0.00 | 0.00 | 0.00 | 96 | 1011.1 |
| 20260509130552 | 71 | 0 | 0.0 | 2.0 | 0.00 | 0.00 | 0.00 | 96 | 1010.9 |
| 20260509130055 | 71 | 0 | 0.0 | 2.0 | 0.00 | 0.00 | 0.00 | 96 | 1010.8 |
| 20260509125552 | 71 | 72 | 0.0 | 2.0 | 0.00 | 0.00 | 0.00 | 96 | 1010.8 |
| 20260509125053 | 71 | 68 | 0.0 | 2.0 | 0.00 | 0.00 | 0.00 | 96 | 1010.8 |
| 20260509124554 | 71 | 0 | 0.0 | 3.0 | 0.00 | 0.00 | 0.00 | 96 | 1010.8 |
| 20260509124052 | 71 | 0 | 0.0 | 3.0 | 0.00 | 0.00 | 0.00 | 96 | 1011.0 |
| 20260509123555 | 71 | 0 | 0.0 | 5.0 | 0.00 | 0.00 | 0.00 | 96 | 1011.1 |
| 20260509123114 | 71 | 0 | 0.0 | 5.0 | 0.00 | 0.00 | 0.00 | 96 | 1010.9 |
| 20260509122553 | 71 | 75 | 0.0 | 5.0 | 0.00 | 0.00 | 0.00 | 96 | 1010.9 |
| 20260509122052 | 71 | 0 | 0.0 | 5.0 | 0.00 | 0.00 | 0.00 | 96 | 1010.8 |
| 20260509121558 | 71 | 55 | 1.0 | 5.0 | 0.00 | 0.00 | 0.00 | 96 | 1010.8 |
| 20260509121053 | 71 | 51 | 1.0 | 5.0 | 0.00 | 0.00 | 0.00 | 96 | 1010.9 |
| 20260509120551 | 71 | 0 | 1.0 | 4.0 | 0.00 | 0.00 | 0.00 | 96 | 1011.1 |
| 20260509120052 | 71 | 63 | 1.0 | 8.0 | 0.00 | 0.00 | 0.00 | 96 | 1011.1 |
| 20260509115552 | 71 | 35 | 2.0 | 9.0 | 0.00 | 0.00 | 0.00 | 95 | 1011.1 |
| 20260509115052 | 71 | 49 | 0.0 | 9.0 | 0.00 | 0.00 | 0.00 | 95 | 1011.1 |
| 20260509114551 | 71 | 0 | 1.0 | 9.0 | 0.00 | 0.00 | 0.00 | 95 | 1011.1 |
| 20260509114051 | 71 | 25 | 1.0 | 4.0 | 0.00 | 0.00 | 0.00 | 95 | 1010.9 |
| 20260509113554 | 71 | 0 | 0.0 | 4.0 | 0.00 | 0.00 | 0.00 | 95 | 1010.8 |
| 20260509113052 | 71 | 53 | 0.0 | 4.0 | 0.00 | 0.00 | 0.00 | 95 | 1010.8 |
| 20260509112549 | 71 | 0 | 0.0 | 4.0 | 0.00 | 0.00 | 0.00 | 95 | 1010.6 |
| 20260509112052 | 71 | 55 | 0.0 | 4.0 | 0.00 | 0.00 | 0.00 | 95 | 1010.4 |
| 20260509111555 | 71 | 0 | 0.0 | 0.0 | 0.00 | 0.00 | 0.00 | 95 | 1010.2 |
| 20260509111119 | 71 | 0 | 0.0 | 1.0 | 0.00 | 0.00 | 0.00 | 95 | 1010.4 |
| 20260509110553 | 71 | 0 | 0.0 | 2.0 | 0.00 | 0.00 | 0.00 | 95 | 1010.3 |
| 20260509110053 | 71 | 0 | 0.0 | 2.0 | 0.00 | 0.00 | 0.00 | 95 | 1010.2 |
| 20260509105553 | 71 | 0 | 0.0 | 2.0 | 0.00 | 0.00 | 0.00 | 95 | 1010.1 |
| 20260509105055 | 71 | 0 | 0.0 | 2.0 | 0.00 | 0.00 | 0.00 | 95 | 1010.3 |
| 20260509104553 | 71 | 0 | 0.0 | 2.0 | 0.00 | 0.00 | 0.00 | 95 | 1010.4 |
| 20260509104054 | 71 | 0 | 0.0 | 2.0 | 0.00 | 0.00 | 0.00 | 95 | 1010.3 |
| 20260509103551 | 71 | 0 | 0.0 | 3.0 | 0.00 | 0.00 | 0.00 | 95 | 1010.3 |
| 20260509103102 | 71 | 0 | 0.0 | 3.0 | 0.00 | 0.00 | 0.00 | 95 | 1010.2 |
| 20260509102554 | 71 | 63 | 0.0 | 2.0 | 0.00 | 0.00 | 0.00 | 95 | 1010.3 |
| 20260509102054 | 72 | 0 | 0.0 | 3.0 | 0.00 | 0.00 | 0.00 | 95 | 1010.4 |
| 20260509101553 | 72 | 0 | 0.0 | 3.0 | 0.00 | 0.00 | 0.00 | 95 | 1010.4 |
| 20260509101054 | 72 | 0 | 0.0 | 4.0 | 0.00 | 0.00 | 0.00 | 95 | 1010.2 |
| 20260509100554 | 72 | 68 | 1.0 | 4.0 | 0.00 | 0.00 | 0.00 | 95 | 1010.4 |
| 20260509100058 | 72 | 74 | 1.0 | 4.0 | 0.00 | 0.00 | 0.00 | 95 | 1010.2 |
| 20260509095554 | 72 | 0 | 0.0 | 4.0 | 0.00 | 0.00 | 0.00 | 95 | 1010.2 |
| 20260509095054 | 72 | 0 | 0.0 | 0.0 | 0.00 | 0.00 | 0.00 | 95 | 1009.8 |
| 20260509094555 | 72 | 0 | 0.0 | 0.0 | 0.00 | 0.00 | 0.00 | 95 | 1009.9 |
| 20260509094055 | 72 | 0 | 0.0 | 0.0 | 0.00 | 0.00 | 0.00 | 95 | 1009.6 |
| 20260509093554 | 72 | 0 | 0.0 | 0.0 | 0.00 | 0.00 | 0.00 | 95 | 1009.5 |
| 20260509093055 | 72 | 0 | 0.0 | 0.0 | 0.00 | 0.00 | 0.00 | 95 | 1009.3 |
| 20260509092557 | 72 | 0 | 0.0 | 0.0 | 0.00 | 0.00 | 0.00 | 95 | 1009.2 |
| 20260509092054 | 72 | 0 | 0.0 | 0.0 | 0.00 | 0.00 | 0.00 | 95 | 1009.1 |
| 20260509091554 | 72 | 0 | 0.0 | 0.0 | 0.00 | 0.00 | 0.00 | 95 | 1009.3 |
| 20260509091053 | 72 | 0 | 0.0 | 0.0 | 0.00 | 0.00 | 0.00 | 95 | 1009.4 |
| 20260509090554 | 72 | 0 | 0.0 | 0.0 | 0.00 | 0.00 | 0.00 | 94 | 1009.4 |
| 20260509090056 | 72 | 0 | 0.0 | 0.0 | 0.00 | 0.00 | 0.00 | 94 | 1009.5 |
| 20260509085554 | 72 | 0 | 0.0 | 0.0 | 0.00 | 0.00 | 0.00 | 94 | 1009.5 |
| 20260509085054 | 72 | 0 | 0.0 | 0.0 | 0.00 | 0.00 | 0.00 | 94 | 1009.5 |
| 20260509084557 | 72 | 0 | 0.0 | 0.0 | 0.00 | 0.00 | 0.00 | 94 | 1009.5 |
| 20260509084057 | 72 | 0 | 0.0 | 0.0 | 0.00 | 0.00 | 0.00 | 94 | 1009.5 |
| 20260509083553 | 72 | 0 | 0.0 | 1.0 | 0.00 | 0.00 | 0.00 | 94 | 1009.5 |
| 20260509083059 | 72 | 0 | 0.0 | 3.0 | 0.00 | 0.00 | 0.00 | 94 | 1009.6 |
| 20260509082554 | 72 | 0 | 0.0 | 4.0 | 0.00 | 0.00 | 0.00 | 94 | 1009.6 |
| 20260509082054 | 72 | 0 | 0.0 | 4.0 | 0.00 | 0.00 | 0.00 | 94 | 1009.6 |
| 20260509081555 | 72 | 0 | 0.0 | 6.0 | 0.00 | 0.00 | 0.00 | 94 | 1009.6 |
| 20260509081055 | 72 | 204 | 0.0 | 6.0 | 0.00 | 0.00 | 0.00 | 94 | 1009.8 |
| 20260509080554 | 72 | 167 | 2.0 | 8.0 | 0.00 | 0.00 | 0.00 | 94 | 1009.9 |
| 20260509075554 | 72 | 153 | 2.0 | 6.0 | 0.00 | 0.00 | 0.00 | 94 | 1009.6 |
| 20260509075053 | 72 | 0 | 0.0 | 4.0 | 0.00 | 0.00 | 0.00 | 94 | 1009.4 |
| 20260509074604 | 72 | 0 | 0.0 | 5.0 | 0.00 | 0.00 | 0.00 | 94 | 1009.6 |
| 20260509074054 | 72 | 0 | 0.0 | 5.0 | 0.00 | 0.00 | 0.00 | 94 | 1009.5 |
| 20260509073557 | 72 | 168 | 1.0 | 5.0 | 0.00 | 0.00 | 0.00 | 94 | 1009.6 |
| 20260509073053 | 72 | 127 | 1.0 | 6.0 | 0.00 | 0.00 | 0.00 | 94 | 1009.6 |
| 20260509072556 | 72 | 194 | 1.0 | 6.0 | 0.00 | 0.00 | 0.00 | 94 | 1009.6 |
| 20260509072053 | 72 | 117 | 1.0 | 5.0 | 0.00 | 0.00 | 0.00 | 94 | 1009.5 |
| 20260509071609 | 72 | 163 | 0.0 | 6.0 | 0.00 | 0.00 | 0.00 | 94 | 1009.4 |
| 20260509071055 | 72 | 131 | 0.0 | 6.0 | 0.00 | 0.00 | 0.00 | 94 | 1009.5 |
| 20260509070554 | 72 | 199 | 1.0 | 4.0 | 0.00 | 0.00 | 0.00 | 94 | 1009.6 |
| 20260509070055 | 72 | 128 | 0.0 | 4.0 | 0.00 | 0.00 | 0.00 | 94 | 1009.8 |
| 20260509065554 | 72 | 121 | 0.0 | 5.0 | 0.00 | 0.00 | 0.00 | 93 | 1009.7 |
| 20260509065054 | 72 | 0 | 1.0 | 5.0 | 0.00 | 0.00 | 0.00 | 93 | 1009.7 |
| 20260509064558 | 72 | 101 | 0.0 | 5.0 | 0.00 | 0.00 | 0.00 | 93 | 1009.8 |
| 20260509064054 | 72 | 167 | 0.0 | 4.0 | 0.00 | 0.00 | 0.00 | 93 | 1009.9 |
| 20260509063551 | 72 | 162 | 0.0 | 5.0 | 0.00 | 0.00 | 0.00 | 93 | 1010.1 |
| 20260509063052 | 72 | 162 | 0.0 | 5.0 | 0.00 | 0.00 | 0.00 | 93 | 1010.0 |
| 20260509062554 | 72 | 159 | 1.0 | 5.0 | 0.00 | 0.00 | 0.00 | 93 | 1009.9 |
| 20260509062054 | 72 | 167 | 0.0 | 4.0 | 0.00 | 0.00 | 0.00 | 93 | 1009.9 |
| 20260509061559 | 72 | 0 | 0.0 | 4.0 | 0.00 | 0.00 | 0.00 | 93 | 1010.1 |
| 20260509061054 | 72 | 133 | 1.0 | 4.0 | 0.00 | 0.00 | 0.00 | 93 | 1010.1 |
| 20260509060554 | 72 | 176 | 0.0 | 4.0 | 0.00 | 0.00 | 0.00 | 93 | 1010.2 |
| 20260509060101 | 72 | 167 | 1.0 | 4.0 | 0.00 | 0.00 | 0.00 | 93 | 1010.2 |
| 20260509055553 | 72 | 0 | 0.0 | 4.0 | 0.00 | 0.00 | 0.00 | 93 | 1010.0 |
| 20260509055055 | 72 | 0 | 0.0 | 7.0 | 0.00 | 0.00 | 0.00 | 93 | 1010.1 |
| 20260509054608 | 72 | 0 | 1.0 | 7.0 | 0.00 | 0.00 | 0.00 | 93 | 1010.4 |
| 20260509054053 | 72 | 190 | 0.0 | 3.0 | 0.00 | 0.00 | 0.00 | 93 | 1010.5 |
| 20260509053555 | 72 | 0 | 1.0 | 3.0 | 0.00 | 0.00 | 0.00 | 93 | 1010.4 |
| 20260509053053 | 72 | 182 | 1.0 | 7.0 | 0.00 | 0.00 | 0.00 | 93 | 1010.6 |
| 20260509052555 | 72 | 0 | 1.0 | 8.0 | 0.00 | 0.00 | 0.00 | 93 | 1010.7 |
| 20260509052058 | 72 | 189 | 1.0 | 8.0 | 0.00 | 0.00 | 0.00 | 93 | 1010.9 |
| 20260509051555 | 72 | 177 | 0.0 | 6.0 | 0.00 | 0.00 | 0.00 | 93 | 1010.8 |
| 20260509051057 | 72 | 176 | 0.0 | 5.0 | 0.00 | 0.00 | 0.00 | 93 | 1010.9 |
| 20260509050554 | 72 | 161 | 0.0 | 5.0 | 0.00 | 0.00 | 0.00 | 93 | 1010.8 |
| 20260509050057 | 72 | 162 | 1.0 | 5.0 | 0.00 | 0.00 | 0.00 | 93 | 1010.6 |
| 20260509045554 | 72 | 0 | 1.0 | 5.0 | 0.00 | 0.00 | 0.00 | 93 | 1010.5 |
| 20260509045054 | 72 | 0 | 1.0 | 5.0 | 0.00 | 0.00 | 0.00 | 92 | 1010.4 |
| 20260509044557 | 72 | 171 | 1.0 | 6.0 | 0.00 | 0.00 | 0.00 | 92 | 1010.6 |
| 20260509044053 | 72 | 173 | 1.0 | 6.0 | 0.00 | 0.00 | 0.00 | 92 | 1010.6 |
| 20260509043553 | 72 | 130 | 1.0 | 4.0 | 0.00 | 0.00 | 0.00 | 92 | 1010.7 |
| 20260509043101 | 71 | 0 | 0.0 | 6.0 | 0.00 | 0.00 | 0.00 | 92 | 1010.4 |
| 20260509042554 | 71 | 0 | 0.0 | 6.0 | 0.00 | 0.00 | 0.00 | 92 | 1010.2 |
| 20260509042054 | 71 | 116 | 1.0 | 6.0 | 0.00 | 0.00 | 0.00 | 92 | 1010.2 |
| 20260509041555 | 71 | 119 | 0.0 | 6.0 | 0.00 | 0.00 | 0.00 | 92 | 1010.0 |
| 20260509041054 | 71 | 0 | 0.0 | 3.0 | 0.00 | 0.00 | 0.00 | 92 | 1009.9 |
| 20260509040555 | 71 | 0 | 0.0 | 2.0 | 0.00 | 0.00 | 0.00 | 92 | 1010.0 |
| 20260509040054 | 71 | 0 | 0.0 | 2.0 | 0.00 | 0.00 | 0.00 | 92 | 1010.0 |
| 20260509035553 | 71 | 0 | 0.0 | 2.0 | 0.00 | 0.00 | 0.00 | 91 | 1009.9 |
| 20260509035053 | 71 | 0 | 0.0 | 3.0 | 0.00 | 0.00 | 0.00 | 91 | 1009.9 |
| 20260509034554 | 71 | 107 | 0.0 | 3.0 | 0.00 | 0.00 | 0.00 | 91 | 1009.7 |
| 20260509034056 | 71 | 110 | 0.0 | 3.0 | 0.00 | 0.00 | 0.00 | 91 | 1009.6 |
| 20260509033554 | 71 | 0 | 0.0 | 4.0 | 0.00 | 0.00 | 0.00 | 91 | 1009.6 |
| 20260509033052 | 71 | 0 | 0.0 | 4.0 | 0.00 | 0.00 | 0.00 | 91 | 1009.7 |
| 20260509032554 | 71 | 0 | 0.0 | 3.0 | 0.00 | 0.00 | 0.00 | 90 | 1009.7 |
| 20260509032057 | 71 | 0 | 0.0 | 0.0 | 0.00 | 0.00 | 0.00 | 90 | 1009.7 |
| 20260509031617 | 72 | 0 | 0.0 | 0.0 | 0.00 | 0.00 | 0.00 | 90 | 1009.8 |
| 20260509031054 | 72 | 0 | 0.0 | 0.0 | 0.00 | 0.00 | 0.00 | 90 | 1009.9 |
| 20260509030554 | 72 | 0 | 0.0 | 0.0 | 0.00 | 0.00 | 0.00 | 90 | 1009.7 |
| 20260509030054 | 72 | 0 | 0.0 | 1.0 | 0.00 | 0.00 | 0.00 | 90 | 1009.8 |
| 20260509025555 | 72 | 0 | 0.0 | 1.0 | 0.00 | 0.00 | 0.00 | 89 | 1009.8 |
| 20260509025053 | 72 | 0 | 0.0 | 1.0 | 0.00 | 0.00 | 0.00 | 89 | 1009.7 |
| 20260509024553 | 72 | 0 | 0.0 | 1.0 | 0.00 | 0.00 | 0.00 | 89 | 1009.7 |
| 20260509024054 | 72 | 0 | 0.0 | 3.0 | 0.00 | 0.00 | 0.00 | 89 | 1009.7 |
| 20260509023554 | 72 | 0 | 0.0 | 3.0 | 0.00 | 0.00 | 0.00 | 89 | 1009.6 |
| 20260509023058 | 73 | 0 | 0.0 | 2.0 | 0.00 | 0.00 | 0.00 | 89 | 1009.6 |
| 20260509022553 | 73 | 0 | 0.0 | 2.0 | 0.00 | 0.00 | 0.00 | 88 | 1009.5 |
| 20260509022053 | 73 | 121 | 0.0 | 4.0 | 0.00 | 0.00 | 0.00 | 88 | 1009.4 |
| 20260509021553 | 73 | 121 | 1.0 | 4.0 | 0.00 | 0.00 | 0.00 | 88 | 1009.3 |
| 20260509021052 | 73 | 115 | 0.0 | 2.0 | 0.00 | 0.00 | 0.00 | 88 | 1009.3 |
| 20260509020555 | 73 | 115 | 0.0 | 2.0 | 0.00 | 0.00 | 0.00 | 88 | 1009.3 |
| 20260509020055 | 73 | 117 | 0.0 | 2.0 | 0.00 | 0.00 | 0.00 | 88 | 1009.1 |
| 20260509015553 | 73 | 117 | 0.0 | 2.0 | 0.00 | 0.00 | 0.00 | 88 | 1008.9 |
| 20260509015053 | 73 | 0 | 0.0 | 2.0 | 0.00 | 0.00 | 0.00 | 88 | 1008.8 |
| 20260509014553 | 73 | 0 | 0.0 | 2.0 | 0.00 | 0.00 | 0.00 | 87 | 1008.8 |
| 20260509014052 | 73 | 0 | 0.0 | 2.0 | 0.00 | 0.00 | 0.00 | 87 | 1008.7 |
| 20260509013552 | 73 | 0 | 0.0 | 2.0 | 0.00 | 0.00 | 0.00 | 87 | 1008.5 |
| 20260509013106 | 73 | 0 | 0.0 | 2.0 | 0.00 | 0.00 | 0.00 | 87 | 1008.5 |
| 20260509012554 | 73 | 0 | 0.0 | 3.0 | 0.00 | 0.00 | 0.00 | 86 | 1008.7 |
| 20260509012052 | 73 | 0 | 0.0 | 3.0 | 0.00 | 0.00 | 0.00 | 86 | 1008.6 |
| 20260509011556 | 74 | 80 | 0.0 | 3.0 | 0.00 | 0.00 | 0.00 | 86 | 1008.7 |
| 20260509011053 | 74 | 79 | 0.0 | 3.0 | 0.00 | 0.00 | 0.00 | 86 | 1008.5 |
| 20260509010553 | 74 | 0 | 0.0 | 4.0 | 0.00 | 0.00 | 0.00 | 86 | 1008.4 |
| 20260509010058 | 74 | 0 | 0.0 | 4.0 | 0.00 | 0.00 | 0.00 | 85 | 1008.4 |
| 20260509005553 | 74 | 80 | 0.0 | 4.0 | 0.00 | 0.00 | 0.00 | 85 | 1008.4 |
| 20260509005053 | 74 | 0 | 0.0 | 2.0 | 0.00 | 0.00 | 0.00 | 85 | 1008.5 |
| 20260509004558 | 74 | 0 | 0.0 | 4.0 | 0.00 | 0.00 | 0.00 | 84 | 1008.4 |
| 20260509004055 | 74 | 0 | 0.0 | 4.0 | 0.00 | 0.00 | 0.00 | 84 | 1008.5 |
| 20260509003553 | 74 | 76 | 1.0 | 4.0 | 0.00 | 0.00 | 0.00 | 84 | 1008.5 |
| 20260509003054 | 74 | 76 | 0.0 | 2.0 | 0.00 | 0.00 | 0.00 | 84 | 1008.5 |
| 20260509002557 | 74 | 0 | 0.0 | 1.0 | 0.00 | 0.00 | 0.00 | 84 | 1008.5 |
| 20260509002052 | 75 | 0 | 0.0 | 3.0 | 0.00 | 0.00 | 0.00 | 83 | 1008.4 |
| 20260509001557 | 75 | 0 | 0.0 | 3.0 | 0.00 | 0.00 | 0.00 | 84 | 1008.4 |
| 20260509001053 | 75 | 0 | 0.0 | 3.0 | 0.00 | 0.00 | 0.00 | 83 | 1008.5 |
| 20260509000553 | 75 | 5 | 0.0 | 2.0 | 0.00 | 0.00 | 0.00 | 83 | 1008.5 |
| 20260509000108 | 75 | 0 | 0.0 | 2.0 | 0.00 | 0.00 | 0.00 | 83 | 1008.6 |
| 20260508235553 | 75 | 0 | 0.0 | 3.0 | 0.00 | 0.00 | 0.00 | 83 | 1008.6 |
| 20260508235053 | 75 | 0 | 0.0 | 6.0 | 0.00 | 0.00 | 0.00 | 83 | 1008.6 |
| 20260508234609 | 75 | 0 | 1.0 | 6.0 | 0.00 | 0.00 | 0.00 | 82 | 1008.5 |
| 20260508234053 | 75 | 79 | 2.0 | 5.0 | 0.00 | 0.00 | 0.00 | 82 | 1008.6 |
| 20260508233553 | 75 | 0 | 0.0 | 3.0 | 0.00 | 0.00 | 0.00 | 82 | 1008.6 |
| 20260508233106 | 75 | 104 | 1.0 | 3.0 | 0.00 | 0.00 | 0.00 | 82 | 1008.6 |
| 20260508232554 | 75 | 0 | 0.0 | 4.0 | 0.00 | 0.00 | 0.00 | 82 | 1008.6 |
| 20260508232053 | 75 | 103 | 1.0 | 4.0 | 0.00 | 0.00 | 0.00 | 82 | 1008.5 |
| 20260508231606 | 75 | 122 | 0.0 | 4.0 | 0.00 | 0.00 | 0.00 | 82 | 1008.5 |
| 20260508231055 | 75 | 80 | 1.0 | 6.0 | 0.00 | 0.00 | 0.00 | 81 | 1008.6 |
| 20260508230553 | 75 | 0 | 1.0 | 6.0 | 0.00 | 0.00 | 0.00 | 81 | 1008.6 |
| 20260508230104 | 76 | 103 | 1.0 | 6.0 | 0.00 | 0.00 | 0.00 | 80 | 1008.5 |
| 20260508225553 | 76 | 94 | 1.0 | 6.0 | 0.00 | 0.00 | 0.00 | 79 | 1008.4 |
| 20260508225053 | 76 | 130 | 1.0 | 6.0 | 0.00 | 0.00 | 0.00 | 80 | 1008.6 |